Regional Weather Roundup
Issued by NWS

Home | Current Version | Previous Version | Graphics & Text | Print | Product List | Glossary On
Versions: 1 2 3 4 5 6 7 8 9 10 11 12 13 14 15 16 17 18 19 20 21 22 23 24 25 26 27 28 29 30 31 32 33 34 35 36 37 38 39 40 41 42 43 44 45 46 47 48 49 50
000
ASUS43 KOAX 190610
RWRNE

WEATHER ROUNDUP FOR NEBRASKA
NATIONAL WEATHER SERVICE OMAHA NE
100 AM CDT THU APR 19 2018

NOTES: SATELLITE DATA IS BEING USED TO AUGMENT CLOUD COVER ABOVE
       12000 FEET.
       "FAIR" INDICATES FEW OR NO CLOUDS BELOW 12,000 FEET WITH NO
       SIGNIFICANT WEATHER AND/OR OBSTRUCTIONS TO VISIBILITY.


NEZ001>004-019>022-054>056-190700-
NEBRASKA PANHANDLE

CITY           SKY/WX    TMP DP  RH WIND       PRES   REMARKS
SCOTTSBLUFF    CLEAR     36  26  67 CALM      30.29R
6HR MIN TEMP:  34; 6HR MAX TEMP:  55;

ALLIANCE       PTCLDY    31  27  85 E3        30.28R
6HR MIN TEMP:  27; 6HR MAX TEMP:  54;

CHADRON        CLEAR     38  31  76 S3        30.28F
6HR MIN TEMP:  31; 6HR MAX TEMP:  52;

GORDON         FAIR      28  26  93 CALM      30.30R
6HR MIN TEMP:  28; 6HR MAX TEMP:  53;

KIMBALL        CLEAR     27  20  75 CALM      30.28S
SIDNEY         CLEAR     31  22  69 E9        30.29S WCI  23
6HR MIN TEMP:  23; 6HR MAX TEMP:  54;

$$

NEZ057>060-069>072-079>082-190700-
SOUTHWEST NEBRASKA

CITY           SKY/WX    TMP DP  RH WIND       PRES   REMARKS
NORTH PLATTE   CLEAR     31  26  82 CALM      30.32R
6HR MIN TEMP:  29; 6HR MAX TEMP:  54;

IMPERIAL       CLEAR     31  27  85 E5        30.30S WCI  26
6HR MIN TEMP:  31; 6HR MAX TEMP:  59;

LEXINGTON      CLEAR     30  27  86 W6        30.32R WCI  24
MCCOOK         CLEAR     38  31  76 SW7       30.31R WCI  33
6HR MIN TEMP:  35; 6HR MAX TEMP:  57;

OGALLALA       CLEAR     31  28  90 CALM      30.31R
$$

NEZ005>010-023>029-035>040-094-190700-
NORTH CENTRAL NEBRASKA

CITY           SKY/WX    TMP DP  RH WIND       PRES   REMARKS
VALENTINE      CLEAR     30  28  92 NW5       30.31R WCI  25
6HR MIN TEMP:  29; 6HR MAX TEMP:  45;

AINSWORTH      CLEAR     31  30  99 NW5       30.31R WCI  26
BROKEN BOW     CLEAR     29  26  89 N3        30.31R
6HR MIN TEMP:  29; 6HR MAX TEMP:  46;

O`NEILL        CLEAR     35  33  93 NW6       30.31R WCI  29
ORD            CLEAR     29  27  92 NW7       30.29R WCI  22
6HR MIN TEMP:  28; 6HR MAX TEMP:  42;

THEDFORD       CLEAR     31  29  94 CALM      30.33R
$$

NEZ041-046>049-061>064-073>077-083>087-190700-
SOUTH CENTRAL NEBRASKA

CITY           SKY/WX    TMP DP  RH WIND       PRES   REMARKS
GRAND ISLAND   CLEAR     32  29  88 NW12      30.30R WCI  23
6HR MIN TEMP:  31; 6HR MAX TEMP:  44;

AURORA         CLEAR     31  30  96 NW6       30.29R WCI  25
HASTINGS       CLEAR     31  29  92 W9        30.31R WCI  23
6HR MIN TEMP:  27; 6HR MAX TEMP:  45;

HEBRON         CLEAR     32  28  85 NW5       30.29R WCI  28
HOLDREGE       CLEAR     32  29  88 NW5       30.31R WCI  27
KEARNEY        CLEAR     32  28  85 NW7       30.32R WCI  26
YORK             N/A     32  32 100 NW10      30.28R WCI  24
$$

NEZ011>018-030>034-042>045-190700-
NORTHEAST NEBRASKA

CITY           SKY/WX    TMP DP  RH WIND       PRES   REMARKS
NORFOLK        CLEAR     34  32  92 N8        30.27R WCI  27
6HR MIN TEMP:  34; 6HR MAX TEMP:  38;

ALBION         PTCLDY    34  32  93 NW6       30.30R WCI  28
BLAIR          CLOUDY    34  31  89 N10       30.26R WCI  26
COLUMBUS       MOCLDY    37  33  85 N9        30.30  WCI  30
FREMONT        PTCLDY    35  33  94 N5        30.28R WCI  31
TEKAMAH        PTCLDY    31  29  92 N3        30.29R
6HR MIN TEMP:  30; 6HR MAX TEMP:  38; 6HR PCP: TRACE;

WAYNE          MOCLDY    33  32  96 NW7       30.28R WCI  27
$$

NEZ050>053-065>068-078-088>093-190700-
SOUTHEAST NEBRASKA

CITY           SKY/WX    TMP DP  RH WIND       PRES   REMARKS
LINCOLN        CLOUDY    38  31  76 N16       30.29R WCI  29
6HR MIN TEMP:  39; 6HR MAX TEMP:  42;

OMAHA EPPLEY   PTCLDY    35  30  82 N13       30.27R WCI  26
6HR MIN TEMP:  35; 6HR MAX TEMP:  40; 6HR PCP: TRACE;

BEATRICE       CLOUDY    35  30  82 NW7       30.27R WCI  29
FALLS CITY     CLOUDY    39  30  70 NW9       30.24R WCI  33
6HR MIN TEMP:  37; 6HR MAX TEMP:  42;

NEBRASKA CITY  CLOUDY    38  36  91 N15       30.25R WCI  30
PLATTSMOUTH    CLOUDY    36  31  81 N8G16     30.26R WCI  29
$$

NEZ044-045-051>053-067-190700-
OMAHA AREA

CITY           SKY/WX    TMP DP  RH WIND       PRES   REMARKS
OMAHA EPPLEY   PTCLDY    35  30  82 N13       30.27R WCI  26
6HR MIN TEMP:  35; 6HR MAX TEMP:  40; 6HR PCP: TRACE;

BLAIR          CLOUDY    34  31  89 N10       30.26R WCI  26
FREMONT        PTCLDY    35  33  94 N5        30.28R WCI  31
MILLARD        CLOUDY    37  31  78 N6        30.28R WCI  33
OFFUTT AFB     MOCLDY    35  29  79 N9        30.26R WCI  28
PLATTSMOUTH    CLOUDY    36  31  81 N8G16     30.26R WCI  29
WAHOO          FAIR      34  31  87 N10       30.27R WCI  26
$$




USA.gov is the U.S. government's official web portal to all federal, state and local government web resources and services.